Wind_Speed
40 34 32 26 26 28 31 27 23 22 22 23 21 17 17 15 16 16 16 14 8 10 7 4 3 7 15 27 36 36 39 41 41 34 30 15 16 26 24 25 31 33 26 24 23 18 21 25 21 19 14 13 11 16
42 38 32 30 25 26 28 26 19 24 23 22 20 18 17 15 13 13 14 13 5 5 5 5 2 2 6 15 27 34 38 39 32 36 24 19 15 23 28 19 27 24 31 23 21 14 17 20 18 17 12 10 13 11
45 42 37 31 28 25 25 26 19 19 22 22 19 17 15 11 10 10 11 11 2 2 3 3 5 3 7 4 15 33 33 29 32 40 28 20 16 25 20 19 26 20 21 16 16 14 17 18 12 10 10 10 11 10
44 45 42 38 30 26 24 23 21 19 17 18 17 15 13 12 10 9 9 10 1 6 6 5 3 3 7 8 17 11 13 13 16 25 24 16 19 25 17 18 27 26 20 20 13 20 20 17 17 14 11 10 9 11
43 44 44 42 37 28 24 22 22 21 17 16 18 16 13 9 12 7 8 10 4 5 6 9 4 3 5 10 12 13 12 13 12 12 14 17 16 18 18 19 21 21 20 21 21 24 19 19 15 11 9 10 11 12
42 46 45 43 42 37 27 23 21 21 18 15 15 14 14 11 9 5 6 8 4 2 5 11 10 7 4 7 10 10 10 8 9 12 14 17 19 17 16 11 20 20 20 18 16 18 17 14 13 13 13 13 14 15
41 44 45 45 44 42 35 25 20 19 19 15 12 12 11 11 8 6 7 7 5 2 5 9 11 11 8 6 8 10 9 9 8 10 10 17 14 18 11 14 21 19 18 15 15 15 16 15 14 14 14 15 17 19
39 42 45 44 46 45 41 32 22 17 16 16 13 11 10 7 6 2 2 5 7 4 1 2 5 15 14 11 10 8 6 6 6 7 9 10 9 7 5 12 15 15 16 16 16 15 14 14 15 14 15 17 19 21
38 40 43 46 45 46 43 39 29 18 15 14 14 11 9 6 5 4 3 2 3 3 3 2 5 9 13 13 14 11 10 7 6 7 8 8 9 6 8 13 15 15 16 15 14 14 15 16 17 18 18 18 20 23
37 39 41 44 45 45 45 43 36 21 14 12 12 9 7 7 6 5 4 5 3 2 2 5 3 1 8 9 10 8 8 8 5 8 8 9 10 9 12 14 15 16 16 17 18 17 16 17 18 18 19 20 22 24
36 38 41 42 44 44 44 43 38 27 14 13 11 8 9 9 8 6 4 3 2 1 3 6 6 6 4 5 5 6 4 5 5 7 9 7 10 15 14 15 16 15 15 15 16 17 18 18 19 19 19 20 20 22
34 36 39 40 42 42 42 42 38 27 17 14 11 10 9 5 3 3 2 1 1 1 1 4 6 6 5 6 5 6 5 6 3 7 7 4 10 12 14 15 15 15 16 16 16 15 15 14 15 16 18 20 22 25
32 35 37 38 39 40 40 39 37 27 16 13 10 5 4 3 2 2 2 2 1 0 1 3 5 7 7 7 4 5 5 4 4 7 5 6 9 12 13 13 13 12 11 10 10 11 12 14 15 17 21 25 29 32
30 33 35 36 36 37 36 37 36 27 15 9 7 5 5 4 3 3 2 2 2 3 3 4 5 5 7 7 4 3 4 4 3 4 6 8 9 10 11 10 9 8 8 9 9 11 14 17 22 26 28 30 30 30
28 29 32 32 32 34 33 34 34 26 14 6 5 5 7 7 8 7 5 5 5 4 3 4 6 4 7 4 5 5 6 4 6 6 7 8 8 8 8 7 7 8 9 9 13 18 22 24 24 25 26 27 28 29
29 28 30 31 31 31 29 29 30 22 15 7 8 11 13 13 13 10 8 6 7 7 6 6 5 4 6 4 5 6 4 4 4 5 6 7 7 7 7 8 9 10 13 16 19 22 22 22 22 22 23 26 27 29
29 29 30 30 31 28 27 23 24 18 13 11 15 15 15 15 14 13 12 12 11 7 7 5 4 6 4 5 6 6 7 6 6 7 10 10 10 10 10 13 14 16 18 21 19 20 20 21 22 23 23 25 26 28
30 31 29 29 30 26 23 17 20 11 18 20 16 15 14 15 15 14 12 11 10 8 10 11 6 7 5 5 9 11 10 10 10 11 12 13 13 13 14 16 18 20 18 18 18 19 20 21 22 23 24 26 26 26
32 33 31 29 27 24 22 12 17 11 18 20 18 15 17 16 15 14 12 10 10 10 10 10 8 9 13 12 9 9 9 10 10 12 13 13 13 14 15 15 16 16 17 17 17 18 20 21 22 23 24 25 25 23
32 35 33 27 24 22 19 8 14 12 20 19 20 21 19 17 16 14 12 10 9 9 9 9 11 9 8 8 8 9 9 9 9 10 11 12 12 13 13 14 15 15 16 16 17 18 19 20 23 25 26 26 24 22
33 36 31 27 22 18 16 10 10 13 17 20 26 25 22 17 14 12 11 10 8 8 8 10 10 9 8 8 9 9 10 10 10 10 11 12 12 12 12 12 14 14 15 15 16 19 20 21 22 23 23 22 22 23
35 38 32 27 20 19 15 13 10 16 19 24 30 29 22 15 14 12 12 10 8 6 6 6 6 7 7 8 8 9 8 9 9 10 11 12 12 12 12 12 13 13 15 15 17 17 19 20 21 22 21 20 20 21
39 39 27 23 17 7 8 13 13 18 20 23 30 32 25 19 14 11 9 9 7 6 7 7 8 8 8 8 9 9 9 9 9 10 11 11 12 12 12 12 11 12 14 16 16 17 18 21 22 22 21 20 19 19
35 21 18 6 5 8 12 14 17 19 23 26 28 29 20 15 12 10 9 9 8 7 7 8 9 9 9 9 9 9 9 9 9 9 10 10 10 10 11 12 12 12 13 14 15 17 19 21 22 22 21 21 21 20
17 9 7 8 9 9 15 18 19 21 25 29 30 20 10 11 10 12 12 10 9 7 6 6 7 7 7 7 8 8 8 8 7 7 8 9 10 10 10 11 12 13 14 14 16 17 19 21 21 22 22 22 22 20
13 5 5 9 12 15 17 16 20 24 28 29 16 10 11 11 5 4 6 7 6 4 5 6 6 5 5 6 7 8 9 9 9 8 8 8 9 10 10 12 13 15 16 18 18 18 19 19 19 18 19 20 21 22
7 7 10 16 19 20 20 23 26 28 28 13 9 9 6 3 2 3 7 7 5 4 6 6 6 5 5 6 7 9 9 10 10 10 10 10 10 11 11 12 14 15 17 18 19 20 19 18 17 17 17 18 20 20
8 13 16 18 20 21 23 24 29 21 10 9 7 5 3 3 4 8 9 8 8 6 4 6 8 9 10 11 12 12 11 11 13 13 14 13 13 13 13 14 15 16 16 18 18 18 19 20 20 19 18 17 17 17
13 16 20 20 21 22 26 23 18 15 14 12 12 12 14 14 14 14 13 12 10 10 10 10 11 12 12 12 13 13 12 12 13 14 15 15 15 15 15 14 15 16 17 17 18 19 19 21 21 19 17 16 15 15
17 21 22 23 23 21 18 16 15 14 13 11 10 10 10 11 12 12 12 12 11 11 10 10 10 10 10 10 9 9 10 11 12 12 12 13 14 15 15 16 16 17 18 17 16 15 17 18 18 17 16 15 14 14
22 22 20 18 17 15 12 11 11 10 9 9 9 11 10 9 9 8 7 6 5 5 6 6 7 8 8 8 9 8 8 9 10 11 11 12 13 14 15 16 15 15 15 14 14 15 15 14 14 13 12 12 12 12
19 16 16 14 11 10 10 10 11 10 10 8 7 7 6 5 5 4 3 2 3 4 5 6 7 9 9 11 12 13 14 15 16 16 16 16 16 16 16 15 15 14 14 14 14 14 13 12 12 11 10 10 10 11
15 13 12 9 9 9 9 10 9 9 8 7 6 5 5 4 3 3 3 3 5 7 9 11 12 12 13 13 13 13 14 14 14 15 15 15 16 16 16 15 14 14 13 13 13 12 11 11 10 10 9 9 9 10
Wind_Direction
1 358 357 351 351 352 356 358 355 350 345 346 346 343 334 321 325 333 339 341 322 316 319 312 285 206 204 208 213 210 208 212 217 214 202 186 203 208 219 221 222 217 210 215 221 224 245 248 239 223 232 220 203 208
4 0 356 355 351 351 355 359 7 12 5 355 351 346 337 327 318 324 338 339 310 306 328 9 41 153 209 216 214 208 206 207 199 200 208 205 182 190 203 189 213 209 218 215 211 216 225 203 205 190 171 170 171 176
10 4 359 354 353 350 352 358 340 351 6 359 359 350 344 326 316 326 335 342 316 285 110 75 67 74 153 152 210 196 198 197 199 199 187 175 182 182 176 186 181 180 186 180 169 162 168 177 178 168 154 167 174 184
9 7 4 358 350 349 346 350 348 338 335 354 359 350 341 329 320 338 340 345 262 191 158 123 63 72 117 151 176 149 170 171 180 188 189 169 180 184 169 179 179 168 168 168 164 160 163 161 169 175 175 180 194 204
9 7 4 2 357 347 344 340 344 343 333 337 351 353 353 340 343 337 357 348 259 224 196 163 164 125 137 127 108 116 104 112 110 125 127 140 143 152 150 153 163 165 164 173 174 169 176 181 189 200 212 219 224 232
5 3 3 1 359 356 345 337 333 340 332 331 342 346 351 358 4 348 354 351 0 282 205 164 173 160 175 151 140 121 123 129 132 140 140 143 148 152 146 149 163 170 176 183 177 183 194 202 211 218 225 235 244 252
358 360 1 1 359 357 355 340 330 326 336 323 326 342 348 351 16 38 45 24 12 353 229 208 186 188 196 191 165 161 156 159 153 144 135 149 144 154 148 149 168 170 176 185 191 200 211 214 216 223 236 247 255 259
352 356 358 358 359 356 356 352 333 321 318 326 311 314 338 342 339 42 21 12 9 24 232 195 206 192 200 206 199 195 194 191 177 172 168 172 179 169 160 163 167 179 189 191 192 201 211 222 234 248 260 261 260 263
348 351 353 354 356 356 355 355 348 323 313 312 319 298 300 321 319 313 319 318 310 18 59 32 190 194 198 202 206 201 207 210 205 191 186 190 193 191 173 172 181 186 194 203 214 228 237 243 251 259 262 261 263 266
344 347 348 350 353 355 355 356 354 338 316 308 313 310 297 279 292 302 291 276 285 270 175 145 115 107 197 199 194 192 198 192 199 196 192 206 202 187 173 181 191 203 214 224 231 236 242 248 254 259 263 268 271 274
340 342 346 347 351 352 353 354 352 350 328 320 310 310 301 293 288 274 248 230 230 247 219 191 180 171 172 178 183 173 152 169 183 187 189 190 199 199 199 204 209 215 224 231 239 245 251 257 261 266 271 274 276 278
338 339 343 343 347 349 352 352 351 349 337 337 320 305 303 299 272 266 290 269 273 225 239 207 209 210 201 185 173 181 174 187 189 174 179 201 199 197 209 219 226 228 229 233 240 247 253 259 262 266 271 276 281 283
335 340 342 341 344 347 350 352 353 350 341 333 329 323 327 340 330 344 356 4 13 42 237 203 209 215 199 203 185 174 183 188 161 178 201 200 180 200 208 213 215 218 222 229 241 249 256 260 265 271 280 285 286 289
332 337 342 340 341 345 349 353 354 353 348 341 341 345 358 5 12 358 332 347 308 289 280 247 215 210 196 185 172 181 182 170 203 219 212 217 215 209 200 198 204 216 228 236 249 261 268 276 286 289 290 291 292 293
331 332 338 339 341 344 348 353 356 357 355 354 357 1 4 343 339 323 308 276 268 262 248 220 210 209 182 173 180 191 185 209 217 216 209 192 180 184 192 202 216 228 241 251 274 284 286 289 289 289 292 293 295 296
331 331 333 340 340 342 347 352 356 0 15 15 13 349 334 326 323 325 342 317 275 252 230 213 196 193 201 207 201 197 197 216 229 204 173 173 185 203 212 218 226 244 265 275 280 284 286 289 291 293 296 297 300 300
335 333 332 334 339 340 345 347 357 16 17 2 349 334 331 323 317 309 307 300 293 309 247 214 216 209 210 213 205 205 218 224 221 218 208 208 208 209 224 241 254 266 276 283 284 286 289 292 296 300 301 300 302 302
341 339 334 333 336 336 342 342 360 4 7 359 347 335 330 324 322 318 308 292 277 260 244 237 246 226 214 208 216 227 236 236 226 215 216 218 219 230 243 254 267 277 280 284 286 290 293 297 300 304 307 307 305 302
341 341 336 331 333 333 337 322 352 356 357 353 348 334 329 330 321 312 311 300 279 258 235 231 229 226 229 238 233 228 224 218 213 211 212 219 232 247 262 270 277 281 284 287 291 293 296 299 302 303 303 304 305 301
334 335 334 331 329 326 324 292 338 351 356 352 348 336 332 325 320 318 310 299 287 266 235 226 231 236 232 228 215 204 200 203 211 227 244 254 261 268 273 277 279 283 286 288 290 292 296 301 306 310 310 308 306 303
324 330 330 324 320 313 303 276 330 350 355 358 352 341 334 326 317 315 313 303 288 269 254 244 243 236 227 221 217 217 221 227 234 245 256 265 272 275 278 278 280 281 285 291 295 300 304 306 306 307 309 308 307 306
316 325 323 321 311 305 289 256 296 332 347 350 348 342 335 325 315 311 307 303 284 267 248 237 226 220 215 210 208 214 225 239 250 257 263 268 273 275 278 281 285 288 291 295 297 299 301 306 310 311 310 308 308 308
312 323 319 314 305 278 252 248 285 318 340 343 343 340 334 325 313 309 309 303 302 274 251 239 232 227 225 227 232 240 244 246 254 261 266 270 272 275 278 281 285 288 290 294 300 306 309 313 315 315 314 312 312 314
319 320 317 293 261 259 260 270 289 313 327 338 336 330 323 318 316 313 304 303 292 274 257 249 240 235 235 237 239 241 248 253 258 262 265 269 272 277 282 286 290 291 293 298 305 310 313 316 315 313 313 314 311 309
314 313 277 273 270 272 274 279 288 312 328 330 328 324 303 308 311 305 297 293 285 276 261 244 233 228 232 240 250 255 258 263 264 262 269 274 280 286 291 295 300 303 305 307 311 314 314 315 315 314 311 308 308 310
304 259 268 282 287 287 288 289 306 320 323 326 314 305 310 310 294 284 313 316 310 280 244 226 219 225 242 255 262 266 269 272 275 274 272 272 277 284 291 297 304 309 311 312 312 311 313 314 313 310 310 309 309 311
267 266 296 302 295 292 294 298 304 312 320 308 298 308 313 285 279 325 348 348 326 280 243 228 219 239 269 282 284 280 275 274 274 276 278 279 279 283 288 294 297 300 304 306 308 309 311 317 321 322 320 318 314 315
264 295 301 302 300 300 298 303 311 315 300 291 285 287 276 278 300 317 320 325 331 330 292 252 258 271 281 287 291 288 282 275 273 275 276 276 279 282 285 286 290 297 302 306 308 313 320 324 330 330 325 324 322 320
293 304 305 302 302 300 302 307 305 300 293 287 282 281 282 283 287 288 289 294 295 293 287 281 280 283 286 288 288 286 284 280 277 278 279 283 286 287 289 292 297 302 306 308 311 315 320 325 325 324 326 329 329 331
299 305 305 305 303 304 306 305 302 301 298 291 287 284 284 288 289 289 287 285 286 286 285 285 285 286 289 290 287 281 282 284 283 283 283 284 285 288 292 295 297 299 301 303 305 310 314 313 316 321 327 331 333 336
302 302 303 302 303 305 307 308 307 305 302 295 290 289 290 290 289 292 294 293 290 289 292 295 296 299 301 301 301 300 295 292 290 287 284 282 282 282 284 286 288 290 293 298 308 309 306 311 316 321 325 329 334 338
304 303 301 301 301 306 307 305 306 303 301 297 291 284 284 285 282 281 282 291 301 306 308 312 312 308 303 299 298 298 297 296 295 293 291 290 290 289 289 289 291 295 296 297 301 303 307 312 315 320 325 329 333 339
297 294 292 293 300 303 303 305 308 302 296 285 274 271 268 259 253 246 257 287 305 310 310 308 307 305 304 303 302 301 300 299 297 297 295 293 290 287 283 281 280 280 286 288 296 301 302 307 312 317 323 326 330 335
Height
2999 2992 2987 2982 2976 2970 2964 2957 2953 2947 2943 2939 2934 2931 2927 2924 2921 2918 2916 2913 2911 2909 2907 2906 2906 2906 2908 2912 2917 2922 2931 2934 2939 2944 2947 2950 2955 2962 2967 2970 2975 2980 2988 2992 2996 2997 2998 2997 3001 3008 3008 3007 3012 3015
2999 2993 2986 2981 2975 2970 2964 2957 2952 2947 2942 2938 2934 2930 2927 2924 2921 2919 2916 2913 2911 2910 2909 2908 2907 2907 2907 2910 2914 2916 2922 2926 2929 2935 2939 2944 2950 2954 2958 2964 2968 2975 2978 2984 2990 2989 2990 2992 2997 3000 3003 3008 3012 3014
3000 2993 2986 2980 2975 2969 2964 2958 2953 2948 2943 2938 2933 2929 2926 2923 2921 2920 2918 2914 2912 2912 2912 2911 2910 2911 2911 2912 2913 2916 2918 2920 2922 2927 2932 2937 2943 2948 2952 2956 2961 2968 2972 2976 2981 2984 2987 2991 2996 3001 3005 3009 3010 3012
3002 2994 2987 2979 2973 2967 2962 2957 2952 2947 2942 2938 2933 2929 2925 2922 2920 2919 2916 2914 2914 2914 2913 2915 2914 2915 2915 2914 2917 2918 2920 2921 2923 2925 2927 2930 2937 2944 2947 2951 2957 2963 2970 2973 2977 2982 2987 2992 2998 3002 3004 3007 3010 3010
3003 2996 2988 2980 2973 2966 2961 2956 2951 2946 2942 2937 2933 2929 2925 2923 2920 2919 2917 2915 2914 2917 2916 2916 2917 2918 2918 2917 2918 2919 2922 2923 2925 2926 2928 2933 2937 2944 2948 2952 2957 2963 2968 2972 2976 2981 2986 2991 2995 2998 3002 3004 3006 3007
3004 2997 2989 2981 2973 2966 2958 2954 2949 2945 2941 2937 2933 2929 2926 2923 2920 2919 2918 2917 2915 2916 2917 2918 2919 2919 2920 2921 2921 2923 2925 2929 2932 2933 2935 2938 2942 2947 2951 2955 2960 2964 2968 2972 2976 2980 2984 2988 2992 2995 2997 2999 3001 3002
3005 2997 2989 2982 2973 2966 2957 2951 2947 2943 2939 2936 2933 2930 2926 2924 2921 2919 2919 2918 2916 2916 2916 2918 2919 2920 2922 2923 2925 2927 2929 2931 2934 2934 2938 2942 2945 2947 2951 2955 2960 2964 2968 2971 2975 2979 2983 2985 2987 2990 2993 2994 2995 2997
3005 2997 2990 2982 2973 2965 2956 2948 2943 2940 2937 2935 2932 2930 2927 2925 2923 2921 2920 2920 2918 2917 2918 2918 2918 2921 2922 2923 2925 2927 2930 2933 2934 2936 2941 2942 2945 2948 2951 2955 2959 2962 2966 2969 2973 2976 2978 2981 2983 2984 2985 2987 2989 2990
3004 2996 2989 2981 2973 2964 2956 2947 2940 2936 2934 2932 2929 2928 2926 2925 2924 2922 2921 2920 2920 2922 2919 2919 2919 2921 2922 2923 2925 2927 2930 2932 2936 2937 2939 2942 2944 2947 2950 2953 2956 2960 2964 2967 2969 2972 2973 2975 2977 2979 2979 2980 2982 2983
3002 2995 2988 2981 2973 2964 2955 2947 2939 2933 2931 2929 2928 2926 2924 2924 2922 2922 2921 2921 2920 2920 2920 2920 2921 2922 2923 2923 2924 2928 2929 2932 2934 2935 2937 2939 2942 2946 2948 2951 2955 2958 2960 2963 2966 2968 2969 2971 2972 2972 2972 2974 2975 2977
3002 2994 2987 2980 2972 2964 2955 2947 2939 2932 2930 2928 2927 2925 2924 2922 2921 2921 2920 2920 2920 2920 2920 2920 2921 2922 2923 2924 2925 2927 2929 2931 2933 2934 2937 2938 2940 2944 2947 2949 2952 2954 2956 2959 2962 2964 2965 2965 2965 2966 2966 2967 2969 2968
2999 2992 2985 2979 2971 2963 2955 2947 2939 2933 2928 2928 2926 2924 2922 2921 2921 2921 2919 2919 2919 2920 2920 2920 2922 2922 2923 2925 2926 2928 2930 2931 2931 2933 2935 2935 2938 2941 2943 2946 2949 2951 2953 2956 2958 2959 2960 2960 2961 2961 2961 2961 2961 2961
2996 2990 2983 2977 2971 2963 2955 2947 2940 2933 2929 2927 2925 2924 2923 2923 2922 2921 2921 2920 2920 2920 2920 2920 2922 2923 2924 2926 2927 2928 2928 2929 2930 2931 2933 2934 2936 2939 2941 2943 2945 2947 2949 2950 2953 2955 2956 2957 2957 2957 2955 2954 2954 2953
2992 2987 2981 2975 2969 2962 2955 2947 2939 2933 2928 2927 2927 2926 2926 2925 2924 2923 2923 2922 2921 2921 2920 2920 2921 2922 2922 2924 2925 2925 2926 2928 2928 2929 2930 2931 2934 2936 2938 2940 2942 2944 2946 2947 2949 2951 2953 2955 2951 2949 2947 2945 2944 2943
2988 2983 2979 2974 2967 2962 2954 2948 2941 2933 2930 2929 2929 2929 2928 2927 2925 2924 2922 2922 2921 2920 2920 2920 2921 2922 2923 2924 2924 2926 2927 2927 2928 2928 2929 2930 2931 2933 2935 2937 2939 2941 2943 2945 2946 2947 2948 2946 2944 2941 2939 2937 2936 2935
2984 2979 2975 2970 2965 2960 2954 2948 2942 2936 2933 2932 2932 2932 2930 2928 2926 2924 2922 2921 2920 2920 2920 2921 2921 2922 2922 2923 2923 2924 2925 2924 2925 2925 2927 2929 2931 2933 2934 2936 2938 2939 2940 2941 2942 2942 2940 2938 2936 2934 2932 2930 2928 2926
2979 2974 2971 2966 2962 2957 2952 2948 2943 2938 2936 2935 2933 2932 2929 2927 2924 2922 2921 2920 2920 2920 2919 2919 2919 2919 2920 2920 2921 2921 2922 2923 2924 2925 2926 2928 2930 2932 2934 2935 2936 2937 2937 2937 2935 2934 2932 2930 2928 2927 2926 2924 2921 2918
2975 2971 2967 2963 2959 2955 2951 2947 2943 2940 2937 2935 2932 2930 2927 2925 2922 2919 2918 2917 2917 2916 2917 2918 2917 2917 2917 2917 2918 2919 2920 2921 2923 2924 2926 2928 2929 2931 2932 2932 2932 2931 2930 2930 2928 2927 2925 2924 2922 2920 2918 2916 2914 2911
2971 2967 2963 2958 2955 2952 2948 2946 2943 2940 2937 2934 2931 2928 2926 2922 2919 2917 2915 2914 2913 2913 2913 2913 2914 2913 2914 2915 2916 2917 2918 2919 2921 2922 2923 2925 2927 2927 2927 2927 2926 2926 2925 2924 2923 2922 2920 2919 2917 2915 2913 2910 2907 2904
2968 2963 2959 2955 2952 2949 2946 2944 2941 2938 2935 2933 2929 2926 2923 2920 2917 2914 2912 2911 2910 2909 2910 2910 2910 2911 2912 2912 2913 2915 2916 2917 2919 2920 2921 2922 2922 2922 2922 2922 2922 2921 2920 2920 2919 2918 2916 2914 2910 2907 2904 2902 2899 2896
2963 2960 2955 2951 2948 2947 2944 2941 2939 2937 2933 2931 2927 2923 2920 2916 2914 2911 2909 2908 2907 2906 2906 2907 2907 2908 2909 2910 2912 2913 2914 2915 2916 2917 2917 2917 2918 2918 2918 2918 2917 2917 2916 2915 2914 2911 2909 2907 2905 2902 2899 2895 2892 2889
2958 2953 2947 2945 2943 2941 2939 2937 2936 2933 2931 2927 2924 2920 2916 2913 2911 2909 2907 2906 2904 2904 2905 2905 2905 2906 2907 2908 2909 2911 2912 2913 2913 2913 2914 2914 2914 2914 2914 2913 2913 2912 2911 2910 2908 2907 2904 2902 2899 2896 2893 2890 2887 2883
2950 2946 2941 2939 2937 2936 2936 2934 2932 2929 2927 2923 2920 2916 2912 2909 2907 2907 2905 2904 2903 2902 2902 2903 2904 2904 2905 2906 2907 2908 2909 2909 2910 2910 2910 2910 2909 2909 2909 2909 2909 2908 2906 2905 2903 2901 2898 2895 2892 2889 2887 2884 2881 2878
2943 2939 2937 2935 2935 2934 2932 2930 2928 2925 2923 2921 2917 2913 2908 2906 2905 2903 2902 2901 2901 2900 2900 2901 2901 2902 2903 2903 2904 2905 2906 2906 2906 2906 2906 2905 2905 2905 2905 2904 2904 2903 2902 2900 2898 2896 2893 2890 2887 2884 2881 2878 2876 2873
2940 2938 2936 2933 2932 2931 2929 2926 2924 2922 2919 2916 2912 2909 2906 2904 2903 2901 2900 2899 2898 2898 2898 2899 2899 2900 2900 2901 2901 2902 2902 2902 2902 2902 2902 2902 2902 2901 2901 2900 2899 2898 2897 2895 2893 2891 2888 2885 2882 2879 2876 2873 2870 2868
2935 2933 2933 2930 2929 2928 2925 2922 2920 2917 2914 2911 2908 2905 2903 2902 2900 2900 2899 2898 2897 2896 2896 2897 2897 2898 2899 2899 2899 2899 2899 2899 2899 2899 2899 2899 2898 2897 2896 2896 2894 2893 2892 2890 2888 2886 2884 2881 2878 2875 2872 2868 2865 2862
2930 2929 2929 2927 2925 2924 2921 2918 2915 2912 2909 2906 2904 2902 2901 2900 2899 2899 2898 2896 2895 2895 2895 2895 2896 2897 2897 2897 2896 2896 2896 2896 2895 2895 2895 2895 2894 2894 2893 2892 2891 2890 2888 2886 2883 2881 2879 2876 2873 2870 2867 2864 2860 2857
2927 2925 2924 2923 2920 2918 2915 2912 2909 2906 2904 2902 2902 2901 2900 2899 2899 2898 2897 2896 2895 2894 2894 2894 2894 2894 2894 2894 2893 2893 2892 2892 2891 2891 2891 2890 2890 2889 2888 2887 2886 2885 2883 2881 2879 2876 2873 2870 2867 2865 2862 2859 2856 2853
2921 2920 2919 2917 2915 2912 2909 2906 2904 2902 2901 2899 2898 2897 2897 2896 2895 2895 2894 2893 2893 2892 2892 2892 2891 2891 2890 2890 2889 2888 2888 2887 2887 2886 2885 2885 2884 2884 2883 2882 2881 2879 2878 2876 2873 2871 2868 2866 2863 2861 2858 2856 2853 2850
2916 2915 2912 2910 2908 2905 2904 2902 2899 2897 2895 2894 2894 2893 2893 2892 2891 2890 2890 2889 2889 2889 2888 2888 2887 2887 2886 2886 2885 2885 2884 2883 2882 2882 2881 2880 2879 2879 2877 2876 2875 2874 2872 2871 2870 2868 2865 2863 2860 2857 2855 2852 2850 2847
2910 2908 2906 2904 2902 2900 2898 2896 2895 2893 2892 2891 2890 2890 2889 2888 2888 2887 2887 2886 2886 2886 2886 2885 2884 2884 2883 2882 2881 2881 2880 2880 2878 2878 2877 2876 2875 2874 2873 2872 2871 2870 2868 2867 2865 2863 2862 2860 2857 2855 2852 2850 2848 2846
2903 2902 2900 2899 2897 2896 2895 2893 2891 2890 2889 2888 2887 2887 2887 2886 2886 2886 2885 2885 2885 2884 2884 2883 2882 2881 2881 2880 2878 2877 2876 2875 2874 2873 2872 2871 2869 2868 2867 2866 2865 2865 2863 2862 2861 2859 2858 2856 2854 2852 2850 2848 2846 2844
2897 2897 2896 2895 2893 2892 2891 2890 2888 2887 2886 2885 2885 2884 2884 2885 2885 2885 2884 2884 2884 2883 2882 2881 2879 2878 2877 2875 2874 2873 2871 2870 2869 2867 2866 2865 2864 2862 2862 2861 2860 2860 2859 2858 2857 2855 2854 2853 2851 2849 2848 2846 2845 2843